Stations météo

réclame
Mon MeteoGroup
Rodez, France (7552): Température de l'air & dewpoint: 04.08.2020 13:00:00 - 10.08.2020 13:00:00 (CEST)Rodez, France (7552): Température de l'air 5cm: 04.08.2020 13:00:00 - 10.08.2020 13:00:00 (CEST)Rodez, France (7552): Vitesse du vent & gusts: 04.08.2020 13:00:00 - 10.08.2020 13:00:00 (CEST)Rodez, France (7552): Direction du vent: 04.08.2020 13:00:00 - 10.08.2020 13:00:00 (CEST)Rodez, France (7552): reduced air pressure: 04.08.2020 13:00:00 - 10.08.2020 13:00:00 (CEST)Rodez, France (7552): visibility: 04.08.2020 13:00:00 - 10.08.2020 13:00:00 (CEST)Rodez, France (7552): Ensoleillement: 04.08.2020 13:00:00 - 10.08.2020 13:00:00 (CEST)Rodez, France (7552): Quantités de précipitations: 04.08.2020 13:00:00 - 10.08.2020 13:00:00 (CEST)
Date & Time tt [°C] td [°C] tt 5cm [°C] ff [km/h] ff [knt] fx [km/h] fx [knt] dd ppp [hPa] vv [km] sd [min] rr [mm]
10.08.2020 13:00:00 - - - - - - - - - - - -
10.08.2020 12:00:00 - - - - - - - - - - - -
10.08.2020 11:00:00 - - - - - - - - - - - -
10.08.2020 10:00:00 - - - - - - - - - - - -
10.08.2020 09:00:00 - - - - - - - - - - - -
10.08.2020 08:00:00 20,8 14,2 18,2 6 4 14 7 S 1013,6 49 41 0,0
10.08.2020 07:00:00 19,4 13,1 16,0 6 4 16 8 ESE 1013,5 60 0 0,0
10.08.2020 06:00:00 18,7 13,1 15,9 7 4 11 6 SE 1013,8 60 0 0,0
10.08.2020 05:00:00 19,3 12,8 15,5 6 3 13 7 N 1014,1 60 0 0,0
10.08.2020 04:00:00 20,2 12,9 17,0 7 4 12 6 NE 1013,9 60 0 0,0
10.08.2020 03:00:00 21,2 14,1 17,7 6 3 12 6 ESE 1013,4 60 0 0,0
10.08.2020 02:00:00 20,2 13,9 17,4 5 3 8 4 SSE 1013,8 60 0 0,0
10.08.2020 01:00:00 20,8 13,5 18,9 8 4 13 7 SE 1013,6 55 0 0,0
10.08.2020 00:00:00 22,7 13,7 19,9 3 2 6 4 SSE 1013,6 60 0 0,0
09.08.2020 23:00:00 24,4 13,6 22,3 6 3 18 10 E 1013,2 60 0 0,0
09.08.2020 22:00:00 25,6 14,7 24,8 11 6 29 15 SE 1012,9 60 0 0,0
09.08.2020 21:00:00 26,5 15,8 26,2 22 12 47 25 SE 1013,1 57 10 0,0
09.08.2020 20:00:00 28,2 15,1 28,3 19 10 41 22 SE 1012,3 48 0 0,0
09.08.2020 19:00:00 30,6 14,7 31,2 19 10 37 20 E 1011,7 46 17 0,0
09.08.2020 18:00:00 33,1 11,6 34,9 12 6 25 13 WNW 1011,4 59 17 0,0
09.08.2020 17:00:00 34,2 12,5 39,4 11 6 26 14 W 1011,3 46 58 0,0
09.08.2020 16:00:00 34,0 12,9 39,1 16 9 28 15 W 1011,9 33 60 0,0
09.08.2020 15:00:00 33,1 15,1 34,9 14 7 27 15 W 1012,3 35 48 0,0
09.08.2020 14:00:00 29,0 17,2 29,5 19 10 30 16 W 1014,1 33 0 0,0
09.08.2020 13:00:00 27,2 17,1 22,0 10 5 22 12 E 1014,2 58 0 0,0
09.08.2020 12:00:00 26,8 17,6 26,9 11 6 24 13 NW 1015,6 57 0 0,0
09.08.2020 11:00:00 29,3 16,5 32,7 10 6 20 11 WSW 1015,6 58 46 0,0
09.08.2020 10:00:00 26,3 16,0 25,1 6 3 18 10 SSE 1016,1 53 49 0,0
09.08.2020 09:00:00 23,6 15,6 22,6 9 5 15 8 ESE 1016,8 55 50 0,0
09.08.2020 08:00:00 21,3 15,2 16,1 9 5 13 7 ENE 1017,2 49 37 0,0
09.08.2020 07:00:00 19,1 14,4 15,3 5 3 11 6 SSE 1018,1 56 0 0,0
09.08.2020 06:00:00 18,9 14,2 16,0 3 2 8 5 SE 1017,7 59 0 0,0
09.08.2020 05:00:00 20,8 14,7 16,7 4 2 6 3 E 1017,3 19 0 0,0
09.08.2020 04:00:00 20,1 14,2 17,3 5 3 7 4 S 1017,7 19 0 0,0
09.08.2020 03:00:00 21,9 14,5 18,4 5 3 7 4 WSW 1017,0 60 0 0,0
09.08.2020 02:00:00 24,2 14,3 20,3 5 3 11 6 W 1016,5 60 0 0,0
09.08.2020 01:00:00 24,9 14,7 21,5 8 4 12 7 WSW 1016,8 60 0 0,0
09.08.2020 00:00:00 25,0 14,8 21,6 6 4 9 5 WSW 1016,7 60 0 0,0
08.08.2020 23:00:00 26,8 14,9 23,3 8 4 25 14 WNW 1016,0 60 0 0,0
08.08.2020 22:00:00 28,2 14,1 26,2 13 7 20 11 NW 1015,5 60 0 0,0
08.08.2020 21:00:00 29,9 13,2 28,6 13 7 26 14 NW 1014,7 60 35 0,0
08.08.2020 20:00:00 33,1 14,7 33,2 17 9 30 16 NW 1013,9 56 60 0,0
08.08.2020 19:00:00 34,7 13,5 37,7 18 10 29 16 WNW 1013,5 40 60 0,0
08.08.2020 18:00:00 35,2 13,4 39,4 17 9 31 17 WNW 1013,8 32 60 0,0
08.08.2020 17:00:00 34,6 14,5 39,6 18 10 35 19 W 1014,3 27 60 0,0
08.08.2020 16:00:00 34,0 15,5 39,2 19 10 36 19 W 1015,1 29 60 0,0
08.08.2020 15:00:00 33,1 16,9 38,8 17 9 31 17 WNW 1015,6 32 60 0,0
08.08.2020 14:00:00 31,8 17,3 37,4 16 8 30 16 W 1016,4 35 60 0,0
08.08.2020 13:00:00 30,5 17,6 36,2 13 7 27 15 WNW 1017,1 20 60 0,0
08.08.2020 12:00:00 28,7 17,2 33,1 10 5 21 12 WNW 1017,9 36 60 0,0
08.08.2020 11:00:00 26,6 16,8 30,5 8 4 17 9 NW 1018,6 60 60 0,0
08.08.2020 10:00:00 24,7 16,4 27,9 7 4 16 8 WSW 1019,3 40 60 0,0
08.08.2020 09:00:00 23,3 15,9 21,8 7 4 12 7 SSW 1019,5 39 60 0,0
08.08.2020 08:00:00 19,4 13,1 14,9 5 3 7 4 S 1020,2 47 39 0,0
08.08.2020 07:00:00 17,9 12,1 14,5 3 1 7 4 S 1020,1 52 0 0,0
08.08.2020 06:00:00 18,2 11,7 15,1 4 2 6 3 S 1019,9 60 0 0,0
08.08.2020 05:00:00 19,8 11,8 16,5 4 2 9 5 S 1019,2 60 0 0,0
08.08.2020 04:00:00 21,6 11,9 18,3 7 4 19 11 S 1019,0 60 0 0,0
08.08.2020 03:00:00 23,3 12,3 20,5 4 2 26 14 WSW 1018,8 60 0 0,0
08.08.2020 02:00:00 25,7 10,3 21,7 5 3 16 8 SW 1018,1 60 0 0,0
08.08.2020 01:00:00 26,9 10,6 24,3 4 2 22 12 SSE 1017,3 60 0 0,0
08.08.2020 00:00:00 27,1 10,3 24,7 14 7 27 14 WSW 1016,8 60 0 0,0
07.08.2020 23:00:00 27,7 10,0 22,0 10 5 18 10 SW 1016,1 60 0 0,0
07.08.2020 22:00:00 27,2 8,6 23,0 7 4 11 6 SW 1015,4 60 0 0,0
07.08.2020 21:00:00 31,4 7,1 26,8 4 2 12 6 W 1013,7 60 31 0,0
07.08.2020 20:00:00 35,3 7,4 35,0 8 5 23 12 NNW 1012,6 59 60 0,0
07.08.2020 19:00:00 36,4 6,5 39,9 12 7 29 16 NW 1012,4 52 60 0,0
07.08.2020 18:00:00 36,6 5,8 41,8 16 8 32 17 NW 1012,6 40 60 0,0
07.08.2020 17:00:00 37,3 6,3 43,3 6 4 26 14 NNE 1012,8 58 60 0,0
07.08.2020 16:00:00 37,1 6,2 43,4 3 2 21 11 ESE 1013,1 60 60 0,0
07.08.2020 15:00:00 35,4 5,7 42,2 14 7 28 15 SW 1013,9 60 60 0,0
07.08.2020 14:00:00 35,2 6,5 43,0 6 4 21 11 E 1014,1 60 60 0,0
07.08.2020 13:00:00 34,4 7,4 41,5 8 4 26 14 SSW 1014,5 60 60 0,0
07.08.2020 12:00:00 33,0 7,8 37,9 6 3 20 11 SSE 1015,1 18 60 0,0
07.08.2020 11:00:00 30,7 8,4 34,0 10 5 23 13 E 1015,5 60 60 0,0
07.08.2020 10:00:00 28,3 7,5 28,7 13 7 22 12 ESE 1016,2 53 60 0,0
07.08.2020 09:00:00 24,5 8,4 22,5 12 7 18 10 E 1016,9 56 60 0,0
07.08.2020 08:00:00 20,8 7,8 18,1 13 7 19 10 E 1017,5 53 40 0,0
07.08.2020 07:00:00 19,4 7,8 13,0 8 4 11 6 E 1017,7 60 0 0,0
07.08.2020 06:00:00 18,6 8,3 13,5 7 4 12 6 ESE 1017,4 60 0 0,0
07.08.2020 05:00:00 19,6 8,9 14,9 9 5 11 6 ESE 1017,1 60 0 0,0
07.08.2020 04:00:00 19,7 8,7 15,2 9 5 11 6 ESE 1017,2 60 0 0,0
07.08.2020 03:00:00 21,9 9,1 17,8 9 5 16 8 ESE 1016,8 60 0 0,0
07.08.2020 02:00:00 21,4 9,0 17,9 12 7 21 11 SE 1016,9 60 0 0,0
07.08.2020 01:00:00 22,0 7,4 14,9 7 4 17 9 ESE 1016,8 60 0 0,0
07.08.2020 00:00:00 20,9 6,4 15,9 4 2 15 8 ESE 1016,8 60 0 0,0
06.08.2020 23:00:00 22,9 7,4 18,3 3 1 7 4 SSE 1015,9 19 0 0,0
06.08.2020 22:00:00 25,4 6,1 19,9 2 1 4 2 SSW 1014,9 60 0 0,0
06.08.2020 21:00:00 29,5 4,9 25,2 5 3 11 6 W 1013,6 60 37 0,0
06.08.2020 20:00:00 33,1 4,8 33,0 5 3 19 11 N 1012,5 60 60 0,0
06.08.2020 19:00:00 33,8 4,5 38,6 10 5 22 12 WNW 1012,3 53 60 0,0
06.08.2020 18:00:00 34,4 4,9 40,1 11 6 22 12 WNW 1012,2 50 60 0,0
06.08.2020 17:00:00 34,3 4,9 41,5 7 4 19 11 NNE 1012,4 60 60 0,0
06.08.2020 16:00:00 33,5 5,1 40,4 8 4 20 11 SE 1012,7 19 60 0,0
06.08.2020 15:00:00 32,6 6,0 39,6 11 6 23 12 NW 1013,3 60 60 0,0
06.08.2020 14:00:00 31,1 6,2 38,1 8 4 22 12 WSW 1013,9 57 60 0,0
06.08.2020 13:00:00 30,4 6,3 36,9 11 6 22 12 WNW 1014,3 58 60 0,0
06.08.2020 12:00:00 29,2 7,7 35,7 7 4 13 7 NNE 1014,6 16 60 0,0
06.08.2020 11:00:00 27,6 6,4 32,1 5 3 12 7 E 1015,2 20 60 0,0
06.08.2020 10:00:00 24,8 7,4 26,1 7 4 13 7 E 1015,8 60 60 0,0
06.08.2020 09:00:00 20,7 8,0 19,8 5 3 10 6 ENE 1016,6 52 60 0,0
06.08.2020 08:00:00 17,3 7,1 11,3 5 3 11 6 ESE 1016,8 51 43 0,0
06.08.2020 07:00:00 14,5 6,6 11,4 9 5 12 7 E 1017,3 60 0 0,0
06.08.2020 06:00:00 15,3 6,6 10,7 9 5 10 5 ESE 1016,8 60 0 0,0
06.08.2020 05:00:00 14,7 6,8 9,4 7 4 13 7 SE 1016,8 60 0 0,0
06.08.2020 04:00:00 13,7 6,3 9,5 5 3 10 5 ESE 1017,1 60 0 0,0
06.08.2020 03:00:00 14,4 5,7 11,0 4 2 9 5 SE 1017,0 60 0 0,0
06.08.2020 02:00:00 17,1 6,6 11,9 3 2 11 6 E 1016,1 60 0 0,0
06.08.2020 01:00:00 16,5 6,3 12,0 4 2 8 4 SE 1016,1 60 0 0,0
06.08.2020 00:00:00 19,8 5,8 13,9 2 1 8 4 SW 1015,1 60 0 0,0
05.08.2020 23:00:00 21,1 6,2 16,3 5 3 13 7 WSW 1014,7 60 0 0,0
05.08.2020 22:00:00 22,3 6,5 18,8 12 7 14 8 WNW 1013,9 60 0 0,0
05.08.2020 21:00:00 24,9 5,1 21,6 8 5 19 10 W 1012,7 60 38 0,0
05.08.2020 20:00:00 28,3 5,2 28,2 14 8 23 13 WNW 1011,6 60 60 0,0
05.08.2020 19:00:00 29,1 4,5 33,9 13 7 27 14 NW 1011,2 60 60 0,0
05.08.2020 18:00:00 29,6 3,5 35,1 13 7 26 14 WNW 1011,1 60 60 0,0
05.08.2020 17:00:00 29,1 1,5 35,4 11 6 30 16 N 1011,5 19 60 0,0
05.08.2020 16:00:00 29,0 3,8 36,3 11 6 26 14 N 1011,7 20 60 0,0
05.08.2020 15:00:00 27,7 4,0 34,3 11 6 28 15 NNW 1012,2 20 60 0,0
05.08.2020 14:00:00 26,7 5,0 33,0 12 6 29 16 WNW 1012,8 46 60 0,0
05.08.2020 13:00:00 25,0 5,7 32,6 9 5 25 13 NNW 1013,6 20 60 0,0
05.08.2020 12:00:00 23,0 6,3 30,0 10 5 21 12 NNW 1014,5 60 60 0,0
05.08.2020 11:00:00 21,2 6,7 27,2 9 5 16 9 N 1015,1 60 60 0,0
05.08.2020 10:00:00 19,8 6,5 24,4 6 3 11 6 N 1015,3 33 60 0,0
05.08.2020 09:00:00 17,3 5,2 16,5 2 1 7 4 S 1015,9 13 60 0,0
05.08.2020 08:00:00 12,6 4,8 7,6 2 1 8 4 S 1017,1 60 42 0,0
05.08.2020 07:00:00 10,4 3,9 7,8 6 4 11 6 S 1017,6 60 0 0,0
05.08.2020 06:00:00 14,0 4,3 11,6 3 1 22 12 NNE 1016,5 60 0 0,0
05.08.2020 05:00:00 14,6 4,6 11,7 14 7 25 14 N 1016,4 60 0 0,0
05.08.2020 04:00:00 14,4 4,4 9,3 9 5 14 8 NNE 1016,8 60 0 0,0
05.08.2020 03:00:00 14,3 4,8 6,8 7 4 9 5 N 1017,0 60 0 0,0
05.08.2020 02:00:00 11,0 4,4 6,8 3 2 8 4 SSW 1018,3 60 0 0,0
05.08.2020 01:00:00 12,9 4,3 8,0 3 1 7 4 WSW 1017,8 60 0 0,0
05.08.2020 00:00:00 16,6 4,9 11,6 6 3 14 7 N 1017,0 60 0 0,0
04.08.2020 23:00:00 17,8 5,0 15,4 8 4 18 10 NNE 1016,7 60 0 0,0
04.08.2020 22:00:00 18,6 4,7 14,8 10 5 22 12 N 1016,1 60 0 0,0
04.08.2020 21:00:00 20,9 4,4 20,1 14 8 32 17 NNW 1015,0 60 40 0,0
04.08.2020 20:00:00 22,7 4,2 22,7 16 9 36 19 NNW 1014,4 43 60 0,0
04.08.2020 19:00:00 23,4 3,8 27,4 22 12 39 21 NNW 1014,1 28 60 0,0
04.08.2020 18:00:00 23,8 3,1 28,7 26 14 41 22 NW 1014,2 30 60 0,0
04.08.2020 17:00:00 23,5 2,3 29,5 25 13 48 26 NNW 1014,4 18 60 0,0
04.08.2020 16:00:00 22,6 2,1 29,5 27 15 49 26 NW 1015,0 30 60 0,0
04.08.2020 15:00:00 22,9 1,8 28,2 26 14 48 26 NW 1015,2 34 60 0,0
04.08.2020 14:00:00 21,7 3,4 26,8 26 14 45 24 WNW 1015,9 41 60 0,0
04.08.2020 13:00:00 20,9 4,4 25,1 21 12 43 23 NW 1016,0 44 60 0,0

tt = Température de l'air
td = dewpoint
tt 5cm = Température de l'air 5cm
ff = Vitesse du vent
fx = gusts
dd = Direction du vent
ppp = reduced air pressure
vv = visibility
sd = Ensoleillement
rr = Quantités de précipitations

stations d'obs. à proximité